Date String (YYYY-MM-DD hh:mm:ss) UTC,Instrument flags,Ambient pressure (hPa),Sample flow (lpm),Bypass flow (lpm),Sample temperature (°C),Ambient temperature (°C),ASC tube jacket temperature (°C),LED temperature (°C),Box temperature (°C),Sample RH (%),Span deviation,Mass concentration (μg/m³),Mass concentration (μg/m³),Mass concentration (μg/m³)
DateTimeUTC,F1_M11,P_M11,Q1_M11,Q2_M11,T1_M11,T2_M11,T3_M11,T4_M11,T5_M11,U1_M11,ZSPAN_M11,X2_M11,X0_M11,X1_M11
2022-04-05 04:00:00,,0811.2,5.01,0.00,28.2,27.3,00.0,37.2,30.0,08.7,0000.0,0004.40,0012.23,0002.14
2022-04-05 04:01:00,,0811.2,4.99,0.00,28.2,27.3,00.0,37.2,30.0,08.8,0000.0,0004.46,0012.53,0002.14
2022-04-05 04:02:00,,0811.2,5.00,0.00,28.3,27.3,00.0,37.2,29.9,08.8,0000.0,0004.47,0013.05,0002.16
2022-04-05 04:03:00,,0811.2,5.00,0.00,28.3,27.3,00.0,37.2,30.0,08.8,0000.0,0004.52,0013.82,0002.15
2022-04-05 04:04:00,,0811.2,4.99,0.00,28.3,27.3,00.0,37.2,30.0,08.8,0000.0,0004.56,0014.19,0002.16
2022-04-05 04:05:00,,0811.1,5.01,0.00,28.3,27.3,00.0,37.2,29.9,09.0,0000.0,0004.60,0014.36,0002.16
2022-04-05 04:06:00,,0811.1,5.01,0.00,28.2,27.3,00.0,37.2,30.0,09.0,0000.0,0004.63,0014.29,0002.16
2022-04-05 04:07:00,,0811.1,4.99,0.00,28.2,27.3,00.0,37.2,30.0,09.0,0000.0,0004.61,0014.42,0002.17
2022-04-05 04:08:00,,0811.1,4.99,0.00,28.2,27.3,00.0,37.2,29.9,09.0,0000.0,0004.65,0015.10,0002.17
2022-04-05 04:09:00,,0811.2,5.00,0.00,28.2,27.3,00.0,37.2,29.9,09.0,0000.0,0004.68,0016.07,0002.18
2022-04-05 04:10:00,,0811.2,5.02,0.00,28.2,27.3,00.0,37.2,29.9,08.9,0000.0,0004.67,0015.25,0002.19
2022-04-05 04:11:00,,0811.1,4.99,0.00,28.2,27.3,00.0,37.2,30.0,09.0,0000.0,0004.74,0015.26,0002.20
2022-04-05 04:12:00,,0811.1,4.99,0.00,28.2,27.4,00.0,37.2,30.0,08.9,0000.0,0004.74,0015.13,0002.21
2022-04-05 04:13:00,,0811.2,5.01,0.00,28.3,27.3,00.0,37.2,29.9,08.9,0000.0,0004.69,0014.82,0002.20
2022-04-05 04:14:00,,0811.1,5.00,0.00,28.3,27.3,00.0,37.2,30.0,08.9,0000.0,0004.67,0013.89,0002.21
2022-04-05 04:15:00,,0811.1,4.99,0.00,28.3,27.4,00.0,37.2,30.1,09.0,0000.0,0004.69,0013.93,0002.22
2022-04-05 04:16:00,,0811.2,5.02,0.00,28.3,27.4,00.0,37.2,30.0,09.0,0000.0,0004.64,0013.58,0002.21
2022-04-05 04:17:00,,0811.0,5.00,0.00,28.3,27.4,00.0,37.2,30.0,09.0,0000.0,0004.65,0013.56,0002.23
2022-04-05 04:18:00,,0811.1,4.99,0.00,28.3,27.4,00.0,37.2,30.0,09.0,0000.0,0004.67,0013.22,0002.23
2022-04-05 04:19:00,,0811.2,5.02,0.00,28.3,27.4,00.0,37.2,30.0,09.0,0000.0,0004.64,0012.88,0002.22
2022-04-05 04:20:00,,0811.2,4.99,0.00,28.3,27.4,00.0,37.2,30.0,09.0,0000.0,0004.58,0011.68,0002.20
2022-04-05 04:21:00,,0811.0,4.99,0.00,28.3,27.4,00.0,37.2,30.0,09.0,0000.0,0004.57,0011.62,0002.21
2022-04-05 04:22:00,,0811.0,5.01,0.00,28.3,27.4,00.0,37.2,30.0,09.0,0000.0,0004.50,0011.39,0002.23
2022-04-05 04:23:00,,0811.0,4.99,0.00,28.3,27.4,00.0,37.2,30.0,09.1,0000.0,0004.49,0011.57,0002.23
2022-04-05 04:24:00,,0811.1,4.99,0.00,28.3,27.4,00.0,37.2,30.0,09.1,0000.0,0004.53,0011.67,0002.26
2022-04-05 04:25:00,,0811.0,5.02,0.00,28.3,27.3,00.0,37.2,30.0,09.2,0000.0,0004.58,0012.16,0002.27
2022-04-05 04:26:00,,0811.0,5.01,0.00,28.2,27.3,00.0,37.2,30.0,09.2,0000.0,0004.50,0011.76,0002.26
2022-04-05 04:27:00,,0811.0,4.99,0.00,28.2,27.3,00.0,37.2,30.0,09.2,0000.0,0004.52,0011.85,0002.26
2022-04-05 04:28:00,,0811.0,5.01,0.00,28.2,27.3,00.0,37.2,29.9,09.1,0000.0,0004.49,0011.82,0002.28
2022-04-05 04:29:00,,0811.1,4.99,0.00,28.2,27.3,00.0,37.2,30.0,09.1,0000.0,0004.42,0011.44,0002.28
2022-04-05 04:30:00,,0811.1,4.99,0.00,28.2,27.3,00.0,37.2,30.0,09.2,0000.0,0004.40,0011.04,0002.30
2022-04-05 04:31:00,,0811.1,5.02,0.00,28.2,27.3,00.0,37.2,30.0,09.2,0000.0,0004.39,0011.23,0002.31
2022-04-05 04:32:00,,0811.0,4.98,0.00,28.2,27.3,00.0,37.2,29.9,09.3,0000.0,0004.48,0011.68,0002.32
2022-04-05 04:33:00,,0810.9,5.01,0.00,28.2,27.3,00.0,37.2,29.9,09.3,0000.0,0004.52,0011.71,0002.31
2022-04-05 04:34:00,,0811.0,4.99,0.00,28.2,27.3,00.0,37.2,30.0,09.3,0000.0,0004.51,0011.80,0002.30
2022-04-05 04:35:00,,0811.0,5.01,0.00,28.2,27.3,00.0,37.2,30.0,09.3,0000.0,0004.50,0012.07,0002.28
2022-04-05 04:36:00,,0811.0,5.01,0.00,28.2,27.3,00.0,37.2,30.0,09.3,0000.0,0004.46,0011.96,0002.28
2022-04-05 04:37:00,,0811.0,4.99,0.00,28.2,27.3,00.0,37.2,30.0,09.4,0000.0,0004.54,0012.64,0002.27
2022-04-05 04:38:00,,0811.0,5.01,0.00,28.2,27.3,00.0,37.2,29.9,09.4,0000.0,0004.53,0012.54,0002.28
2022-04-05 04:39:00,,0811.0,5.00,0.00,28.2,27.3,00.0,37.2,29.9,09.3,0000.0,0004.55,0012.66,0002.27
2022-04-05 04:40:00,,0811.1,4.99,0.00,28.2,27.3,00.0,37.2,30.0,09.3,0000.0,0004.65,0013.05,0002.28
2022-04-05 04:41:00,,0811.1,5.00,0.00,28.2,27.3,00.0,37.2,30.0,09.3,0000.0,0004.75,0013.59,0002.30
2022-04-05 04:42:00,,0810.8,5.01,0.00,28.2,27.3,00.0,37.2,30.0,09.4,0000.0,0004.75,0013.47,0002.31
2022-04-05 04:43:00,,0810.6,5.01,0.00,28.2,27.3,00.0,37.2,29.9,09.4,0000.0,0004.69,0013.12,0002.32
2022-04-05 04:44:00,,0810.7,4.99,0.00,28.2,27.3,00.0,37.2,29.9,09.4,0000.0,0004.64,0013.35,0002.31
2022-04-05 04:45:00,,0810.9,5.00,0.00,28.1,27.2,00.0,37.2,29.9,09.4,0000.0,0004.66,0013.22,0002.31
2022-04-05 04:46:00,,0810.9,4.98,0.00,28.1,27.3,00.0,37.2,29.9,09.4,0000.0,0004.66,0012.88,0002.33
2022-04-05 04:47:00,,0810.9,5.02,0.00,28.2,27.3,00.0,37.2,29.9,09.4,0000.0,0004.74,0012.84,0002.34
2022-04-05 04:48:00,,0810.8,4.99,0.00,28.2,27.3,00.0,37.2,29.9,09.4,0000.0,0004.73,0012.63,0002.34
2022-04-05 04:49:00,,0810.8,4.99,0.00,28.2,27.3,00.0,37.2,29.9,09.5,0000.0,0004.82,0014.19,0002.34
2022-04-05 04:50:00,,0810.7,5.02,0.00,28.2,27.4,00.0,37.2,29.9,09.6,0000.0,0004.83,0014.48,0002.32
2022-04-05 04:51:00,,0810.8,4.98,0.00,28.2,27.3,00.0,37.2,30.0,09.6,0000.0,0004.75,0014.16,0002.31
2022-04-05 04:52:00,,0810.5,5.01,0.00,28.2,27.2,00.0,37.2,29.9,09.6,0000.0,0004.64,0013.99,0002.29
2022-04-05 04:53:00,,0810.5,5.00,0.00,28.1,27.2,00.0,37.2,29.9,09.6,0000.0,0004.62,0014.33,0002.27
2022-04-05 04:54:00,,0810.7,4.99,0.00,28.1,27.1,00.0,37.1,29.8,09.7,0000.0,0004.63,0014.38,0002.27
2022-04-05 04:55:00,,0810.3,5.02,0.00,28.1,27.1,00.0,37.1,29.8,09.8,0000.0,0004.57,0014.33,0002.27
2022-04-05 04:56:00,,0810.1,4.99,0.00,28.1,27.1,00.0,37.1,29.8,10.0,0000.0,0004.56,0014.56,0002.27
2022-04-05 04:57:00,,0810.2,4.99,0.00,28.1,27.0,00.0,37.1,29.8,10.0,0000.0,0004.57,0014.65,0002.25
2022-04-05 04:58:00,,0810.4,5.01,0.00,28.1,26.9,00.0,37.1,29.8,10.1,0000.0,0004.53,0014.75,0002.24
2022-04-05 04:59:00,,0810.6,5.01,0.00,28.0,26.9,00.0,37.1,29.7,10.1,0000.0,0004.50,0015.27,0002.22
